[[{"header":{"parameterUnit":"m.s-1","parameterCategory":1,"la1":30.2991,"la2":30.254,"lo1":-89.0895,"lo2":-89.0444,"dy":0.0017,"dx":0.0017,"nx":28,"ny":28,"refTime":"2025-08-12T21:00:00:Z","depth":0,"parameterNumber":2,"parameterNumberName":"U-component_of_WINDS"},"data":[0,0,0,0,0,0,0,0,0,0,0,0,0,0,0,0,0,0,0,0,0,0,0,0,0,0,0,0,0,0,0,0,0,0,0,0,0,0,0,0,0,0,0,0,0,0,0,0,0,0,0,0,0,0,0,0,0,0,4.7839,4.7841,0,4.808,4.8082,4.8085,4.8076,4.8072,4.8069,4.8066,4.8318,4.8328,4.8338,0,0,0,0,0,0,0,0,0,0,0,0,0,4.7373,4.7382,4.7838,4.7841,4.7844,4.8079,4.8083,4.8086,4.8076,4.8072,4.8068,4.8064,4.8315,4.8327,4.8339,0,0,0,0,0,0,0,0,0,0,0,0,0,4.7591,4.7384,4.7838,4.7868,4.7873,4.8079,4.8083,4.8087,4.8077,4.8072,4.8067,4.8062,4.8311,4.8326,4.834,4.8534,0,0,4.8386,4.8392,0,0,0,0,0,0,0,0,4.7579,4.7608,4.786,4.7866,4.7872,4.8042,4.8011,4.8237,4.8078,4.8,4.8066,4.806,4.8231,4.8252,4.8309,4.8545,4.8556,4.8387,4.8396,4.8402,4.8406,0,0,0,0,0,0,0,4.7563,4.7598,4.7934,4.7864,4.7871,4.787,4.7896,4.8054,4.8141,4.8006,4.8006,4.8035,4.8233,4.8294,4.8315,4.856,4.8386,4.84,4.8409,4.8415,4.8964,4.897,0,0,0,0,0,0,4.7541,4.7585,4.7926,4.7941,4.771,4.7883,4.7911,4.7993,4.8139,4.8157,4.8039,4.8033,4.8272,4.8297,4.8323,4.8557,4.8402,4.8416,4.8425,4.8959,4.8966,4.8972,0,0,0,0,0,0,4.7531,4.7572,4.7917,4.7763,4.7807,4.7896,4.7988,4.8,4.8061,4.8164,4.818,4.8085,4.8269,4.8302,4.848,4.8565,4.8423,4.8436,4.8952,4.8961,4.8969,4.9026,0,0,0,0,0,0,4.7518,4.7568,4.7642,4.7765,4.7815,4.8069,4.7994,4.8009,4.8086,4.8081,4.8211,4.8228,4.8267,4.8458,4.8495,4.8583,4.8448,4.8945,4.8956,4.8966,4.9017,4.9036,4.9052,0,0,0,0,0,4.7501,4.7651,4.7646,4.7687,4.7909,4.8074,4.8102,4.8143,4.8093,4.8168,4.8234,4.8224,4.855,4.8476,4.8518,4.8612,4.8939,4.8953,4.8965,4.901,4.9032,4.9051,0,0,0,0,0,0,4.7538,4.7667,4.7663,4.7857,4.7954,4.8071,4.8168,4.8166,4.8281,4.8272,4.8319,4.8349,4.8526,4.8587,4.8502,4.8805,4.8739,4.876,4.8758,4.8781,4.8798,4.8779,4.846,0,0,0,0,0,4.7568,4.769,4.7797,4.7957,4.8006,4.8078,4.8152,4.8174,4.8277,4.8319,4.8398,4.85,4.8625,4.8707,4.8828,4.9027,4.9054,4.9112,4.9129,4.9142,4.916,4.9267,4.9293,4.9014,4.9014,4.9014,0,0,4.7633,4.7719,4.7793,4.7967,4.8044,4.8169,4.8113,4.8249,4.8342,4.834,4.8511,4.8573,4.869,4.8878,4.8965,4.8934,4.9243,4.9159,4.9169,4.918,4.9283,4.9309,4.9333,4.9023,4.9021,4.902,0,0,4.7814,4.7891,4.8031,4.811,4.8227,4.8274,4.8308,4.8426,4.8465,4.8637,4.8638,4.875,4.8966,4.9048,4.9118,4.9327,4.9321,4.9365,4.9455,4.9559,4.9581,4.96,4.9672,4.9698,4.9383,4.9383,4.9383,0,4.7879,4.8066,4.8105,4.824,4.8315,4.8317,4.8459,4.8534,4.8686,4.8739,4.8702,4.897,4.905,4.9255,4.9305,4.9363,4.9402,4.935,4.9574,4.9594,4.9613,4.9682,4.971,4.9388,4.9387,4.9387,4.9386,0,4.814,4.827,4.8369,4.8512,4.8599,4.8738,4.8797,4.8881,4.8896,4.8946,4.9121,4.9215,4.9354,4.9405,4.9422,4.9613,4.959,4.9564,4.9497,4.9643,4.9709,4.9736,4.9394,4.9392,4.9391,4.939,0,0,4.8352,4.8511,4.8547,4.8611,4.8739,4.8841,4.8979,4.9112,4.9182,4.9287,4.9403,4.9584,4.9559,4.9639,4.9665,4.9756,4.9912,4.9718,4.9722,4.9749,5.0125,5.0142,5.0172,4.9909,4.9915,4.9919,5.0114,0,4.8543,4.8785,4.8823,4.9036,4.9155,4.9157,4.9277,4.9369,4.942,4.9529,4.9586,4.9712,4.9672,4.9719,4.9809,4.9873,4.9988,4.986,5.0017,5.0022,4.9985,5.0207,5.0227,5.0407,5.014,5.0145,5.0148,0,4.88,4.8907,4.9132,4.9241,4.9293,4.9399,4.9523,4.9628,4.9732,4.9762,4.9849,4.9864,5.0007,4.9935,5.0132,5.0044,5.0111,5.0152,5.016,5.0175,5.0093,5.0226,5.0466,5.0491,5.019,5.0186,5.0183,0,4.8928,4.913,4.9289,4.9344,4.9476,4.9551,4.961,4.9709,4.9785,4.9894,4.9944,5.0069,5.0138,5.0234,5.0282,5.0226,5.0475,5.0408,5.0504,5.0503,5.0555,5.0551,5.0806,5.0602,5.0601,5.0601,5.06,0,4.9138,4.9274,4.9348,4.9446,4.9598,4.964,4.979,4.9848,4.9935,5.0044,5.0055,5.0158,5.0215,5.0327,5.0366,5.0521,5.0553,5.0581,5.0589,5.0579,5.0575,5.0622,5.061,5.0608,5.0607,5.0605,5.0604,0,4.9306,4.9361,4.9534,4.9644,4.9675,4.9782,4.9877,4.9972,5.0021,5.0159,5.0194,5.0272,5.0403,5.046,5.0623,5.0649,5.0826,5.0827,5.079,5.0792,5.0883,5.0873,5.1176,5.1217,5.0988,5.099,5.0992,0,4.9435,4.954,4.9659,4.9732,4.9792,4.991,4.9986,5.0032,5.0112,5.0236,5.0316,5.0447,5.0553,5.0763,5.0835,5.0959,5.0961,5.1059,5.098,5.0965,5.0959,5.0951,5.0961,5.1072,5.1075,5.1077,5.1078,0,4.9657,4.9678,4.9788,4.9907,4.9998,5.0094,5.0189,5.0248,5.0308,5.0398,5.053,5.0612,5.0776,5.0905,5.1032,5.1094,5.1096,5.1102,5.113,5.112,5.1093,5.1106,5.0826,5.1095,5.1093,5.1092,5.1091,5.109,4.9809,4.99,4.9997,5.0119,5.0194,5.0281,5.0374,5.0434,5.0544,5.0679,5.0699,5.084,5.094,5.1111,5.1177,5.1288,5.1265,5.1306,5.1316,5.1325,5.1329,5.1076,5.1313,5.1312,5.1312,5.1311,5.1311,0,5.0029,5.0091,5.0202,5.0331,5.0426,5.0417,5.0521,5.0601,5.0724,5.0816,5.0919,5.107,5.1195,5.1275,5.1401,5.1474,5.1478,5.1506,5.15,5.1513,5.1345,5.1307,5.15,5.15,5.15,5.15,5.15,5.15,5.0155,5.0308,5.034,5.053,5.0592,5.0727,5.0786,5.0867,5.094,5.1107,5.1209,5.126,5.1347,5.1479,5.1592,5.1613,5.1657,5.1686,5.1705,5.1546,5.1526,5.1507,5.1471,5.1696,5.1696,5.1864,5.1865,5.1866]},{"header":{"parameterUnit":"m.s-1","parameterCategory":1,"la1":30.2991,"la2":30.254,"lo1":-89.0895,"lo2":-89.0444,"dy":0.0017,"dx":0.0017,"nx":28,"ny":28,"refTime":"2025-08-12T21:00:00:Z","depth":0,"parameterNumber":3,"parameterNumberName":"V-component_of_WINDS"},"data":[0,0,0,0,0,0,0,0,0,0,0,0,0,0,0,0,0,0,0,0,0,0,0,0,0,0,0,0,0,0,0,0,0,0,0,0,0,0,0,0,0,0,0,0,0,0,0,0,0,0,0,0,0,0,0,0,0,0,2.3928,2.393,0,2.4065,2.4066,2.4068,2.4092,2.4091,2.409,2.4089,2.4226,2.423,2.4235,0,0,0,0,0,0,0,0,0,0,0,0,0,2.3684,2.3688,2.3928,2.393,2.3931,2.4064,2.4066,2.4068,2.4092,2.4091,2.4089,2.4088,2.4224,2.423,2.4235,0,0,0,0,0,0,0,0,0,0,0,0,0,2.3802,2.369,2.3928,2.396,2.3964,2.4064,2.4066,2.4069,2.4092,2.4091,2.4089,2.4088,2.4222,2.4229,2.4236,2.4313,0,0,2.4257,2.4261,0,0,0,0,0,0,0,0,2.3795,2.3811,2.3953,2.3958,2.3962,2.406,2.403,2.415,2.4093,2.4044,2.4089,2.4087,2.4171,2.4183,2.4212,2.432,2.4325,2.4258,2.4262,2.4265,2.4267,0,0,0,0,0,0,0,2.3787,2.3805,2.3982,2.3955,2.3961,2.3966,2.398,2.4053,2.4115,2.4048,2.405,2.4066,2.4174,2.4205,2.4215,2.4327,2.4258,2.4264,2.4268,2.4271,2.4502,2.4504,0,0,0,0,0,0,2.3774,2.3798,2.3978,2.3986,2.3873,2.3971,2.3988,2.403,2.4115,2.4126,2.4067,2.4066,2.4194,2.4207,2.422,2.4315,2.4265,2.4272,2.4276,2.45,2.4503,2.4505,0,0,0,0,0,0,2.3768,2.379,2.3972,2.3893,2.3916,2.3977,2.4024,2.4034,2.4065,2.4129,2.414,2.4088,2.4193,2.421,2.4289,2.432,2.4275,2.4281,2.4498,2.4501,2.4504,2.4505,0,0,0,0,0,0,2.3761,2.3788,2.3819,2.3893,2.3921,2.4041,2.4026,2.4038,2.4077,2.4078,2.4152,2.4162,2.4193,2.4279,2.4296,2.4329,2.4287,2.4496,2.4499,2.4503,2.4502,2.4507,2.4512,0,0,0,0,0,2.3753,2.3814,2.382,2.3842,2.3961,2.4042,2.4058,2.4093,2.408,2.4111,2.4151,2.416,2.4313,2.4287,2.4307,2.4342,2.4494,2.4498,2.4503,2.45,2.4506,2.4512,0,0,0,0,0,0,2.3741,2.3824,2.3832,2.392,2.3974,2.4046,2.4087,2.4099,2.4157,2.4155,2.4195,2.4211,2.4288,2.4322,2.4291,2.4419,2.4403,2.4411,2.4394,2.44,2.4405,2.4395,2.4293,0,0,0,0,0,2.3748,2.3808,2.3878,2.3948,2.3974,2.4026,2.4063,2.4085,2.4142,2.4165,2.4212,2.4266,2.4326,2.4365,2.4424,2.4507,2.4522,2.4541,2.4545,2.4549,2.4556,2.46,2.4608,2.4519,2.4519,2.4519,0,0,2.3764,2.3817,2.3853,2.3947,2.3991,2.4051,2.4045,2.4109,2.4154,2.4174,2.4252,2.4288,2.4351,2.4432,2.447,2.4463,2.4583,2.4554,2.4557,2.4562,2.4605,2.4614,2.4621,2.4522,2.4521,2.4521,0,0,2.3824,2.3871,2.3934,2.3978,2.4046,2.4079,2.4094,2.4165,2.4189,2.4268,2.4284,2.4336,2.444,2.4484,2.452,2.4593,2.4602,2.4611,2.4636,2.4678,2.4685,2.4692,2.4717,2.4725,2.4618,2.4618,2.4618,0,2.3836,2.3928,2.3965,2.4028,2.4068,2.4089,2.4152,2.4193,2.4276,2.4302,2.4293,2.4422,2.4466,2.4557,2.4574,2.4603,2.462,2.4603,2.4681,2.4688,2.4695,2.4719,2.4728,2.4618,2.4618,2.4618,2.4618,0,2.3938,2.4002,2.4044,2.4124,2.4168,2.4231,2.4275,2.4315,2.4332,2.4366,2.4444,2.4497,2.4567,2.459,2.4607,2.4682,2.4675,2.4674,2.4658,2.4703,2.4727,2.4736,2.4619,2.4619,2.4619,2.4619,0,0,2.3996,2.4094,2.4109,2.4144,2.4219,2.4268,2.433,2.4399,2.4432,2.4487,2.454,2.4625,2.4624,2.4664,2.4686,2.4724,2.4777,2.4717,2.4719,2.4726,2.486,2.486,2.4871,2.4783,2.4785,2.4786,2.4854,0,2.4065,2.4178,2.4211,2.4306,2.4364,2.4384,2.4438,2.4488,2.452,2.4573,2.4608,2.4668,2.4662,2.4686,2.4724,2.4762,2.4804,2.4758,2.483,2.4832,2.4814,2.4883,2.4885,2.4946,2.4864,2.4865,2.4866,0,2.4161,2.4218,2.4318,2.4384,2.4409,2.4458,2.4522,2.4572,2.4629,2.4649,2.4693,2.4712,2.4775,2.4755,2.4842,2.481,2.4841,2.4864,2.4867,2.4875,2.4852,2.4892,2.4967,2.4976,2.4881,2.488,2.4879,0,2.4191,2.4294,2.4367,2.4397,2.4475,2.4508,2.4542,2.4597,2.4635,2.4691,2.4715,2.4777,2.4811,2.4857,2.4891,2.4873,2.4974,2.4957,2.4991,2.499,2.5012,2.501,2.5092,2.5033,2.5033,2.5032,2.5032,0,2.4264,2.4325,2.4382,2.4426,2.4494,2.453,2.4595,2.463,2.4678,2.4728,2.4749,2.4795,2.4837,2.4889,2.4915,2.4982,2.4997,2.5015,2.5021,2.5013,2.501,2.5034,2.503,2.5035,2.5034,2.5034,2.5033,0,2.4311,2.4352,2.4432,2.4499,2.4517,2.4564,2.462,2.4663,2.4696,2.4759,2.4776,2.4826,2.4887,2.4925,2.5003,2.5021,2.5094,2.5099,2.5075,2.5078,2.511,2.5106,2.5209,2.5224,2.5155,2.5156,2.5156,0,2.4355,2.4402,2.4473,2.4509,2.4543,2.46,2.4639,2.4676,2.4715,2.4782,2.4816,2.4879,2.4931,2.5028,2.507,2.5129,2.5135,2.5167,2.5144,2.5134,2.5134,2.5131,2.5135,2.5171,2.5172,2.5172,2.5173,0,2.4428,2.4445,2.4501,2.4563,2.4609,2.4659,2.471,2.4737,2.4782,2.4824,2.4888,2.4928,2.5007,2.5068,2.5131,2.5164,2.5175,2.5179,2.519,2.5182,2.5166,2.5174,2.5085,2.5177,2.5176,2.5176,2.5176,2.5176,2.4474,2.4515,2.4572,2.4633,2.4674,2.472,2.4764,2.4801,2.4854,2.4922,2.494,2.5006,2.5058,2.5143,2.5177,2.5228,2.5223,2.5239,2.5243,2.5246,2.5246,2.5158,2.5239,2.5239,2.5239,2.5239,2.5239,0,2.4547,2.4584,2.4639,2.4709,2.4756,2.4763,2.4818,2.4857,2.4915,2.4963,2.5014,2.5085,2.5144,2.519,2.525,2.5282,2.5288,2.5296,2.5294,2.5301,2.5248,2.5232,2.529,2.529,2.529,2.529,2.529,2.529,2.459,2.4661,2.4684,2.4775,2.4811,2.4876,2.4907,2.4948,2.4987,2.5066,2.5116,2.5146,2.5193,2.5256,2.5309,2.5321,2.5342,2.5349,2.5361,2.5311,2.5305,2.53,2.5285,2.5353,2.5353,2.541,2.5411,2.5411]}]]